カタログに戻る

DELTA 1 DEB

運用中SSO
NORAD 7148·DEBRIS·🇺🇸 United States

打ち上げ Nov 6, 1973 から Vandenberg Space Force Base

Loading…

次のパス (今後24時間)

TLE

最新Source: Space-Track

元期: Sep 14, 2026, 12:12 UTC

1 07148U 73086DN  26257.50876690  .00000221  00000-0  22977-2 0  9991
2 07148 102.0458 280.8328 0127199 131.0699  33.2949 12.26115424364541

AllMySatでDELTA 1 DEBをリアルタイム追跡

Download on the App Store